Starlink 31870

operational
NORAD ID: 59787 Int'l Des: 2024-093 Owner: SPXS Country: US Constellation: starlink
LEOCIRCULAR

About Starlink 31870

Description loading...

Live Position

Loading 3D Globe...

Upcoming Passes

Altitude History

Altitude vs Time

uPlot chart will show altitude changes over time

Two-Line Element Set

1 59787U 24093F 25306.01454384 -.00004892 00000-0 -16833-3 0 9998
2 59787 43.0010 209.5547 0001575 248.8970 111.1713 15.27583211 83173
Epoch: Nov 2, 2025 • Age: 26 hours

Current Status

Altitude 490.5 km
Velocity 7.62 km/s
Sub-Earth Point -30.94°S, 16.27°W
Launch Date May 18, 2024
Age 1.4 years
Type internet

Technical Details

Classification Payload
Mass 730.00 kg
Dry Mass 700.00 kg
Total Mass 730.00 kg
Length 0.30 m
Diameter 4.10 m
Span 29.00 m
Shape Box + pan
Manufacturer SPXS
Bus Type Starlink V2M
Phase Status In Orbit
Owner/State SPXS/US

Large Constellations

Loading constellations...